星链-1230 (STARLINK-1230 )

导读

STARLINK-1230是美国太空探索技术公司 SpaceX 发射的星链卫星,属于星链低轨互联网星座组成部分,于2020年2月17日发射入轨。星链项目旨在为全球提供高速低延迟宽带互联网服务,该卫星承担着星座网络节点功能,服务全球偏远地区网络覆盖等场景。

Basic Information
目录编号:
45189
目录名称:
STARLINK-1230
国际标识:
2020-012M
轨道中心:
EARTH
卫星名称:
星链-1230
卫星全名:
星链-1230 (STARLINK-1230 )
卫星状态:
在轨 (已飞行2398 天)
发射日期:
2020-02-17 UTC
国别 :
美国 (US)
星等 :
--
This satellite is enrolled in the Space Conjunction Data Service (SCDS) and the current flight risk assessment level is: No High Risk
Orbit Information
数据来源 国际轨道数据 AOE轨道数据
星历时间 2026-09-10T15:04:00+0800
1天前
查看轨道信息
2026-09-07T08:00:00+0800
4天前
查看轨道信息
半长轴 6816.441km 6817.113km
偏心率 0.0002498 0.0002582
轨道倾角 53.151° 53.152°
近地点辐角 50.634° 35.723°
升交点赤经 255.411° 271.008°
平近点角 309.489° 19.592°
近地点 436.601km 437.215km
远地点 440.007km 440.737km
周期 93.346分钟 93.360分钟
每日圈数 15.426462 15.424178
Detailed Information
固有亮度:
5
最大亮度:
2.5
卫星平台:
Starlink V1.0
覆盖范围:
全球
运营商:
太空探索技术公司
运营商所在国:
美国
制造商(研发单位):
太空探索技术公司
制造商所在国:
美国
使用方式:
暂无
Satellite Introduction
星链(Starlink)计划是由太空探索技术公司(SpaceX)提出的一个巨型低轨卫星互联网星座项目,计划在2019年至2024年间在太空搭建由约1.2万颗卫星组成的“星链”网络,其中1584颗将部署在地球上空550千米处的近地轨道,并从2020年开始工作。该卫星仍在工作。
2D Orbit Map
3D Orbit Map
Orbit Altitude Analysis Chart
Orbit Inclination Analysis Chart
Orbit Comprehensive Analysis Chart
View Comprehensive Chart
Conjunction Data List
Event ID Objects TCA Miss Dist (km) Collision Risk Probability Collision Risk Index (CRI) Action
CDM_260912-230504-518905-890022
2026-09-12T
23:05:37+0000
1.929 km
极远距离
3.018324E-6 低风险 0.45
Miss Distance Evolution Trend with All Objects
Collision Probability Evolution Trend with All Objects